| time (UTC) | temp F | wind direction | speed knots | gust knots | rain 1hr in | rain 24hr in | rain mn in | humidity % | barometer mb |
| 20260510153506 | 58 | 58 | 9.6 | 16.5 | 0.00 | 0.00 | 0.00 | 63 | 1013.3 |
| 20260510152505 | 59 | 44 | 10.4 | 19.1 | 0.00 | 0.00 | 0.00 | 61 | 1013.4 |
| 20260510151505 | 60 | 44 | 9.6 | 16.5 | 0.00 | 0.00 | 0.00 | 61 | 1013.4 |
| 20260510150505 | 61 | 40 | 9.6 | 15.6 | 0.00 | 0.00 | 0.00 | 59 | 1013.6 |
| 20260510150005 | 61 | 30 | 7.8 | 14.8 | 0.00 | 0.00 | 0.00 | 59 | 1013.7 |
| 20260510145505 | 62 | 34 | 7.8 | 18.2 | 0.00 | 0.00 | 0.00 | 58 | 1013.7 |
| 20260510144505 | 61 | 43 | 7.8 | 21.7 | 0.00 | 0.00 | 0.00 | 61 | 1013.8 |
| 20260510144005 | 60 | 50 | 7.8 | 19.1 | 0.00 | 0.00 | 0.00 | 62 | 1013.9 |
| 20260510143505 | 60 | 61 | 9.6 | 18.2 | 0.00 | 0.00 | 0.00 | 62 | 1013.8 |
| 20260510143005 | 59 | 50 | 9.6 | 18.2 | 0.00 | 0.00 | 0.00 | 62 | 1014.0 |
| 20260510142505 | 59 | 43 | 9.6 | 18.2 | 0.00 | 0.00 | 0.00 | 63 | 1014.0 |
| 20260510142005 | 59 | 48 | 9.6 | 18.2 | 0.00 | 0.00 | 0.00 | 63 | 1014.2 |
| 20260510141505 | 59 | 46 | 7.0 | 14.8 | 0.00 | 0.00 | 0.00 | 63 | 1014.2 |
| 20260510141005 | 59 | 50 | 7.0 | 13.0 | 0.00 | 0.00 | 0.00 | 63 | 1014.2 |
| 20260510140505 | 59 | 55 | 7.0 | 13.0 | 0.00 | 0.00 | 0.00 | 63 | 1014.3 |
| 20260510140005 | 59 | 55 | 7.0 | 15.6 | 0.00 | 0.00 | 0.00 | 63 | 1014.3 |
| 20260510135005 | 59 | 58 | 9.6 | 16.5 | 0.00 | 0.00 | 0.00 | 61 | 1014.4 |
| 20260510134505 | 59 | 51 | 7.8 | 15.6 | 0.00 | 0.00 | 0.00 | 62 | 1014.3 |
| 20260510134005 | 59 | 49 | 7.8 | 19.1 | 0.00 | 0.00 | 0.00 | 62 | 1014.3 |
| 20260510133005 | 60 | 54 | 7.8 | 16.5 | 0.00 | 0.00 | 0.00 | 61 | 1014.3 |
| 20260510132505 | 60 | 52 | 7.8 | 16.5 | 0.00 | 0.00 | 0.00 | 62 | 1014.3 |
| 20260510132005 | 60 | 45 | 7.0 | 13.9 | 0.00 | 0.00 | 0.00 | 61 | 1014.3 |
| 20260510131505 | 60 | 55 | 7.8 | 16.5 | 0.00 | 0.00 | 0.00 | 62 | 1014.3 |
| 20260510131005 | 60 | 55 | 9.6 | 16.5 | 0.00 | 0.00 | 0.00 | 61 | 1014.4 |
| 20260510130506 | 60 | 49 | 7.8 | 16.5 | 0.00 | 0.00 | 0.00 | 60 | 1014.5 |
| 20260510130005 | 60 | 48 | 7.8 | 15.6 | 0.00 | 0.00 | 0.00 | 60 | 1014.5 |
| 20260510125505 | 60 | 50 | 7.8 | 16.5 | 0.00 | 0.00 | 0.00 | 60 | 1014.5 |
| 20260510124505 | 60 | 52 | 9.6 | 18.2 | 0.00 | 0.00 | 0.00 | 59 | 1014.7 |
| 20260510124005 | 61 | 47 | 9.6 | 15.6 | 0.00 | 0.00 | 0.00 | 59 | 1014.7 |
| 20260510123505 | 61 | 53 | 9.6 | 19.1 | 0.00 | 0.00 | 0.00 | 58 | 1014.7 |
| 20260510123005 | 62 | 56 | 9.6 | 19.1 | 0.00 | 0.00 | 0.00 | 58 | 1014.6 |
| 20260510122505 | 62 | 49 | 7.8 | 15.6 | 0.00 | 0.00 | 0.00 | 58 | 1014.6 |
| 20260510122005 | 62 | 43 | 9.6 | 15.6 | 0.00 | 0.00 | 0.00 | 58 | 1014.6 |
| 20260510121505 | 61 | 54 | 7.8 | 18.2 | 0.00 | 0.00 | 0.00 | 59 | 1014.7 |
| 20260510120005 | 61 | 39 | 9.6 | 19.1 | 0.00 | 0.00 | 0.00 | 58 | 1014.7 |
| 20260510115505 | 62 | 51 | 7.8 | 19.1 | 0.00 | 0.00 | 0.00 | 57 | 1014.8 |
| 20260510115005 | 62 | 60 | 9.6 | 16.5 | 0.00 | 0.00 | 0.00 | 58 | 1014.8 |
| 20260510114505 | 62 | 60 | 10.4 | 20.0 | 0.00 | 0.00 | 0.00 | 57 | 1014.8 |
| 20260510114005 | 62 | 51 | 9.6 | 20.0 | 0.00 | 0.00 | 0.00 | 56 | 1014.8 |
| 20260510113505 | 63 | 49 | 7.8 | 16.5 | 0.00 | 0.00 | 0.00 | 54 | 1014.9 |
| 20260510113005 | 62 | 55 | 7.8 | 16.5 | 0.00 | 0.00 | 0.00 | 56 | 1014.8 |
| 20260510112005 | 61 | 71 | 9.6 | 18.2 | 0.00 | 0.00 | 0.00 | 56 | 1015.0 |
| 20260510111505 | 61 | 60 | 9.6 | 23.5 | 0.00 | 0.00 | 0.00 | 58 | 1015.2 |
| 20260510111005 | 62 | 62 | 9.6 | 23.5 | 0.00 | 0.00 | 0.00 | 57 | 1015.2 |
| 20260510110505 | 61 | 65 | 9.6 | 18.2 | 0.00 | 0.00 | 0.00 | 59 | 1015.3 |
| 20260510110005 | 60 | 49 | 9.6 | 16.5 | 0.00 | 0.00 | 0.00 | 60 | 1015.3 |
| 20260510105505 | 60 | 45 | 7.8 | 15.6 | 0.00 | 0.00 | 0.00 | 60 | 1015.4 |
| 20260510104505 | 60 | 61 | 7.8 | 18.2 | 0.00 | 0.00 | 0.00 | 62 | 1015.3 |
| 20260510104005 | 60 | 70 | 9.6 | 18.2 | 0.00 | 0.00 | 0.00 | 61 | 1015.5 |
| 20260510103505 | 59 | 71 | 9.6 | 18.2 | 0.00 | 0.00 | 0.00 | 61 | 1015.5 |
| 20260510103007 | 59 | 66 | 9.6 | 19.1 | 0.00 | 0.00 | 0.00 | 60 | 1015.6 |
| 20260510102505 | 59 | 69 | 10.4 | 20.0 | 0.00 | 0.00 | 0.00 | 62 | 1015.6 |
| 20260510102005 | 58 | 68 | 10.4 | 20.0 | 0.00 | 0.00 | 0.00 | 62 | 1015.7 |
| 20260510101005 | 58 | 59 | 9.6 | 18.2 | 0.00 | 0.00 | 0.00 | 63 | 1015.8 |
| 20260510100505 | 57 | 57 | 9.6 | 19.1 | 0.00 | 0.00 | 0.00 | 65 | 1015.8 |
| 20260510100005 | 57 | 58 | 10.4 | 20.9 | 0.00 | 0.00 | 0.00 | 67 | 1015.9 |
| 20260510095505 | 56 | 55 | 9.6 | 20.9 | 0.00 | 0.00 | 0.00 | 66 | 1015.8 |
| 20260510095005 | 56 | 53 | 6.1 | 13.9 | 0.00 | 0.00 | 0.00 | 67 | 1015.8 |
| 20260510094505 | 56 | 56 | 7.0 | 16.5 | 0.00 | 0.00 | 0.00 | 69 | 1015.8 |
| 20260510093505 | 56 | 50 | 9.6 | 20.0 | 0.00 | 0.00 | 0.00 | 67 | 1015.9 |
| 20260510093005 | 56 | 46 | 7.8 | 16.5 | 0.00 | 0.00 | 0.00 | 68 | 1015.9 |
| 20260510092505 | 55 | 40 | 9.6 | 15.6 | 0.00 | 0.00 | 0.00 | 68 | 1015.9 |
| 20260510092005 | 55 | 50 | 10.4 | 21.7 | 0.00 | 0.00 | 0.00 | 67 | 1015.8 |
| 20260510091007 | 55 | 55 | 9.6 | 23.5 | 0.00 | 0.00 | 0.00 | 69 | 1016.0 |
| 20260510090505 | 55 | 50 | 7.8 | 23.5 | 0.00 | 0.00 | 0.00 | 71 | 1016.0 |
| 20260510090005 | 55 | 40 | 7.8 | 19.1 | 0.00 | 0.00 | 0.00 | 70 | 1015.9 |
| 20260510085505 | 55 | 43 | 9.6 | 20.0 | 0.00 | 0.00 | 0.00 | 70 | 1016.1 |
| 20260510085005 | 55 | 40 | 7.8 | 20.0 | 0.00 | 0.00 | 0.00 | 70 | 1016.1 |
| 20260510084505 | 55 | 47 | 7.0 | 15.6 | 0.00 | 0.00 | 0.00 | 70 | 1016.2 |
| 20260510084005 | 55 | 48 | 7.8 | 15.6 | 0.00 | 0.00 | 0.00 | 71 | 1016.2 |
| 20260510083505 | 55 | 38 | 7.8 | 18.2 | 0.00 | 0.00 | 0.00 | 70 | 1016.1 |
| 20260510083005 | 55 | 46 | 7.0 | 18.2 | 0.00 | 0.00 | 0.00 | 71 | 1016.1 |
| 20260510082504 | 55 | 48 | 7.0 | 18.2 | 0.00 | 0.00 | 0.00 | 73 | 1016.2 |
| 20260510082005 | 54 | 38 | 7.8 | 14.8 | 0.00 | 0.00 | 0.00 | 74 | 1016.3 |
| 20260510081505 | 54 | 41 | 7.0 | 14.8 | 0.00 | 0.00 | 0.00 | 74 | 1016.2 |
| 20260510081005 | 54 | 45 | 7.0 | 15.6 | 0.00 | 0.00 | 0.00 | 76 | 1016.2 |
| 20260510080505 | 53 | 39 | 7.0 | 15.6 | 0.00 | 0.00 | 0.00 | 77 | 1016.3 |
| 20260510080005 | 53 | 42 | 7.0 | 13.9 | 0.00 | 0.00 | 0.00 | 77 | 1016.3 |
| 20260510075505 | 52 | 48 | 7.0 | 15.6 | 0.00 | 0.00 | 0.00 | 78 | 1016.2 |
| 20260510075005 | 52 | 46 | 7.8 | 18.2 | 0.00 | 0.00 | 0.00 | 78 | 1016.4 |
| 20260510074505 | 52 | 52 | 7.8 | 18.2 | 0.00 | 0.00 | 0.00 | 77 | 1016.4 |
| 20260510074005 | 52 | 55 | 7.0 | 14.8 | 0.00 | 0.00 | 0.00 | 78 | 1016.2 |
| 20260510073505 | 52 | 55 | 6.1 | 16.5 | 0.00 | 0.00 | 0.00 | 79 | 1016.2 |
| 20260510073005 | 52 | 54 | 7.0 | 16.5 | 0.00 | 0.00 | 0.00 | 78 | 1016.3 |
| 20260510072505 | 52 | 49 | 7.8 | 15.6 | 0.00 | 0.00 | 0.00 | 77 | 1016.3 |
| 20260510070505 | 51 | 48 | 6.1 | 13.9 | 0.00 | 0.00 | 0.00 | 80 | 1016.1 |
| 20260510070005 | 51 | 53 | 6.1 | 13.0 | 0.00 | 0.00 | 0.00 | 81 | 1016.1 |
| 20260510065005 | 50 | 51 | 7.0 | 13.0 | 0.00 | 0.00 | 0.00 | 83 | 1016.1 |
| 20260510064505 | 50 | 50 | 6.1 | 12.2 | 0.00 | 0.00 | 0.00 | 83 | 1016.2 |
| 20260510064005 | 49 | 48 | 5.2 | 11.3 | 0.00 | 0.00 | 0.00 | 84 | 1016.1 |
| 20260510063504 | 49 | 47 | 5.2 | 11.3 | 0.00 | 0.00 | 0.00 | 85 | 1016.1 |
| 20260510063005 | 49 | 36 | 4.3 | 8.7 | 0.00 | 0.00 | 0.00 | 86 | 1016.1 |
| 20260510062505 | 49 | 32 | 4.3 | 12.2 | 0.00 | 0.00 | 0.00 | 86 | 1016.1 |
| 20260510061505 | 48 | 34 | 4.3 | 8.7 | 0.00 | 0.00 | 0.00 | 87 | 1016.0 |
| 20260510061005 | 48 | 31 | 4.3 | 7.8 | 0.00 | 0.00 | 0.00 | 87 | 1015.9 |
| 20260510060505 | 48 | 32 | 3.5 | 7.0 | 0.00 | 0.00 | 0.00 | 87 | 1015.9 |
| 20260510060005 | 48 | 30 | 3.5 | 6.1 | 0.00 | 0.00 | 0.00 | 87 | 1015.9 |
| 20260510055505 | 48 | 31 | 3.5 | 7.0 | 0.00 | 0.00 | 0.00 | 87 | 1015.9 |
| 20260510055005 | 47 | 34 | 3.5 | 7.0 | 0.00 | 0.00 | 0.00 | 87 | 1015.9 |
| 20260510054505 | 47 | 32 | 3.5 | 7.8 | 0.00 | 0.00 | 0.00 | 87 | 1015.9 |
| 20260510054005 | 47 | 29 | 4.3 | 7.8 | 0.00 | 0.00 | 0.00 | 87 | 1015.9 |
| 20260510053505 | 47 | 32 | 3.5 | 6.1 | 0.00 | 0.00 | 0.00 | 87 | 1015.9 |
| 20260510053005 | 47 | 32 | 3.5 | 7.0 | 0.00 | 0.00 | 0.00 | 87 | 1015.9 |
| 20260510052505 | 47 | 25 | 4.3 | 7.8 | 0.00 | 0.00 | 0.00 | 87 | 1016.0 |
| 20260510052005 | 47 | 22 | 4.3 | 7.8 | 0.00 | 0.00 | 0.00 | 87 | 1015.9 |
| 20260510051505 | 47 | 23 | 3.5 | 7.0 | 0.00 | 0.00 | 0.00 | 87 | 1016.0 |
| 20260510051005 | 47 | 26 | 3.5 | 8.7 | 0.00 | 0.00 | 0.00 | 87 | 1016.1 |
| 20260510050505 | 47 | 33 | 3.5 | 8.7 | 0.00 | 0.00 | 0.00 | 86 | 1016.1 |
| 20260510045505 | 48 | 32 | 4.3 | 8.7 | 0.00 | 0.00 | 0.00 | 86 | 1016.1 |
| 20260510045005 | 48 | 34 | 4.3 | 8.7 | 0.00 | 0.00 | 0.00 | 86 | 1016.1 |
| 20260510044505 | 48 | 32 | 4.3 | 8.7 | 0.00 | 0.00 | 0.00 | 86 | 1016.0 |
| 20260510044005 | 48 | 30 | 4.3 | 8.7 | 0.00 | 0.00 | 0.00 | 85 | 1016.0 |
| 20260510043505 | 48 | 26 | 4.3 | 8.7 | 0.00 | 0.00 | 0.00 | 85 | 1015.9 |
| 20260510043005 | 48 | 38 | 4.3 | 9.6 | 0.00 | 0.00 | 0.00 | 85 | 1016.0 |
| 20260510042505 | 48 | 49 | 4.3 | 9.6 | 0.00 | 0.00 | 0.00 | 84 | 1016.0 |
| 20260510042005 | 48 | 43 | 4.3 | 11.3 | 0.00 | 0.00 | 0.00 | 84 | 1016.0 |
| 20260510041505 | 49 | 38 | 4.3 | 11.3 | 0.00 | 0.00 | 0.00 | 84 | 1016.0 |
| 20260510041005 | 49 | 34 | 3.5 | 8.7 | 0.00 | 0.00 | 0.00 | 83 | 1016.0 |
| 20260510040505 | 49 | 35 | 4.3 | 8.7 | 0.00 | 0.00 | 0.00 | 83 | 1016.1 |
| 20260510040005 | 49 | 33 | 4.3 | 8.7 | 0.00 | 0.00 | 0.00 | 83 | 1016.1 |
| 20260510035505 | 49 | 21 | 5.2 | 9.6 | 0.00 | 0.00 | 0.00 | 83 | 1016.1 |
| 20260510035005 | 49 | 22 | 5.2 | 9.6 | 0.00 | 0.00 | 0.00 | 83 | 1016.1 |
| 20260510034505 | 49 | 32 | 4.3 | 8.7 | 0.00 | 0.00 | 0.00 | 83 | 1016.0 |
| 20260510034005 | 50 | 34 | 4.3 | 8.7 | 0.00 | 0.00 | 0.00 | 83 | 1016.1 |
| 20260510033505 | 50 | 32 | 4.3 | 9.6 | 0.00 | 0.00 | 0.00 | 82 | 1016.1 |
| 20260510033005 | 50 | 35 | 4.3 | 9.6 | 0.00 | 0.00 | 0.00 | 82 | 1016.1 |
| 20260510032505 | 50 | 32 | 4.3 | 8.7 | 0.00 | 0.00 | 0.00 | 81 | 1016.2 |
| 20260510032005 | 50 | 23 | 4.3 | 8.7 | 0.00 | 0.00 | 0.00 | 81 | 1016.2 |
| 20260510031505 | 51 | 33 | 4.3 | 13.0 | 0.00 | 0.00 | 0.00 | 81 | 1016.3 |
| 20260510031005 | 51 | 40 | 5.2 | 13.0 | 0.00 | 0.00 | 0.00 | 80 | 1016.3 |
| 20260510030505 | 51 | 34 | 5.2 | 12.2 | 0.00 | 0.00 | 0.00 | 80 | 1016.3 |
| 20260510025005 | 51 | 34 | 4.3 | 7.8 | 0.00 | 0.00 | 0.00 | 76 | 1016.1 |
| 20260510024505 | 51 | 36 | 4.3 | 7.8 | 0.00 | 0.00 | 0.00 | 75 | 1016.2 |
| 20260510024005 | 51 | 35 | 4.3 | 9.6 | 0.00 | 0.00 | 0.00 | 74 | 1016.2 |
| 20260510023005 | 52 | 30 | 5.2 | 9.6 | 0.00 | 0.00 | 0.00 | 72 | 1016.1 |
| 20260510022505 | 52 | 33 | 5.2 | 12.2 | 0.00 | 0.00 | 0.00 | 71 | 1016.1 |
| 20260510022005 | 52 | 32 | 5.2 | 12.2 | 0.00 | 0.00 | 0.00 | 70 | 1016.0 |
| 20260510021505 | 52 | 26 | 5.2 | 13.0 | 0.00 | 0.00 | 0.00 | 69 | 1016.0 |
| 20260510021005 | 52 | 31 | 5.2 | 13.0 | 0.00 | 0.00 | 0.00 | 68 | 1016.0 |
| 20260510020505 | 52 | 39 | 4.3 | 9.6 | 0.00 | 0.00 | 0.00 | 67 | 1015.9 |
| 20260510020005 | 53 | 50 | 5.2 | 12.2 | 0.00 | 0.00 | 0.00 | 66 | 1015.9 |
| 20260510015505 | 53 | 51 | 5.2 | 12.2 | 0.00 | 0.00 | 0.00 | 65 | 1016.0 |
| 20260510015005 | 53 | 45 | 5.2 | 11.3 | 0.00 | 0.00 | 0.00 | 65 | 1016.0 |
| 20260510014005 | 53 | 33 | 4.3 | 11.3 | 0.00 | 0.00 | 0.00 | 64 | 1016.0 |
| 20260510013505 | 54 | 31 | 4.3 | 8.7 | 0.00 | 0.00 | 0.00 | 64 | 1015.9 |
| 20260510013005 | 54 | 30 | 4.3 | 7.8 | 0.00 | 0.00 | 0.00 | 64 | 1015.9 |
| 20260510012507 | 54 | 34 | 4.3 | 11.3 | 0.00 | 0.00 | 0.00 | 63 | 1015.9 |
| 20260510011505 | 54 | 44 | 4.3 | 8.7 | 0.00 | 0.00 | 0.00 | 63 | 1016.0 |
| 20260510011005 | 54 | 39 | 3.5 | 8.7 | 0.00 | 0.00 | 0.00 | 62 | 1016.0 |
| 20260510010505 | 54 | 34 | 3.5 | 7.0 | 0.00 | 0.00 | 0.00 | 62 | 1016.0 |
| 20260510010005 | 54 | 39 | 3.5 | 6.1 | 0.00 | 0.00 | 0.00 | 62 | 1016.0 |
| 20260510005505 | 54 | 42 | 3.5 | 8.7 | 0.00 | 0.00 | 0.00 | 62 | 1016.1 |
| 20260510004505 | 54 | 25 | 1.7 | 6.1 | 0.00 | 0.00 | 0.00 | 61 | 1016.0 |
| 20260510003505 | 54 | 17 | 3.5 | 6.1 | 0.00 | 0.00 | 0.00 | 60 | 1016.0 |
| 20260510003005 | 54 | 15 | 1.7 | 6.1 | 0.00 | 0.00 | 0.00 | 60 | 1016.0 |
| 20260510002505 | 54 | 6 | 1.7 | 4.3 | 0.00 | 0.00 | 0.00 | 59 | 1016.1 |
| 20260510002005 | 55 | 4 | 1.7 | 5.2 | 0.00 | 0.00 | 0.00 | 59 | 1016.2 |
| 20260510001005 | 55 | 23 | 1.7 | 5.2 | 0.00 | 0.00 | 0.00 | 57 | 1016.1 |
| 20260510000505 | 55 | 19 | 1.7 | 5.2 | 0.00 | 0.00 | 0.00 | 57 | 1016.1 |
| 20260510000005 | 56 | 27 | 3.5 | 6.1 | 0.00 | 0.00 | 0.00 | 56 | 1016.0 |
| 20260509235505 | 56 | 39 | 3.5 | 7.8 | 0.00 | 0.00 | 0.00 | 56 | 1016.0 |
| 20260509235005 | 56 | 50 | 3.5 | 7.8 | 0.00 | 0.00 | 0.00 | 56 | 1016.0 |
| 20260509234505 | 56 | 40 | 3.5 | 7.8 | 0.00 | 0.00 | 0.00 | 55 | 1016.0 |
| 20260509234005 | 56 | 27 | 3.5 | 7.0 | 0.00 | 0.00 | 0.00 | 55 | 1016.0 |
| 20260509233506 | 56 | 30 | 3.5 | 7.0 | 0.00 | 0.00 | 0.00 | 55 | 1015.9 |
| 20260509233010 | 56 | 26 | 3.5 | 7.0 | 0.00 | 0.00 | 0.00 | 55 | 1015.8 |
| 20260509232505 | 56 | 28 | 3.5 | 7.8 | 0.00 | 0.00 | 0.00 | 55 | 1015.8 |
| 20260509231005 | 57 | 41 | 3.5 | 7.0 | 0.00 | 0.00 | 0.00 | 53 | 1015.8 |
| 20260509230505 | 57 | 37 | 4.3 | 9.6 | 0.00 | 0.00 | 0.00 | 53 | 1015.7 |
| 20260509230007 | 57 | 50 | 5.2 | 11.3 | 0.00 | 0.00 | 0.00 | 52 | 1015.8 |
| 20260509225005 | 57 | 46 | 4.3 | 11.3 | 0.00 | 0.00 | 0.00 | 53 | 1015.8 |
| 20260509224504 | 57 | 45 | 3.5 | 11.3 | 0.00 | 0.00 | 0.00 | 53 | 1015.7 |
| 20260509224005 | 57 | 50 | 3.5 | 6.1 | 0.00 | 0.00 | 0.00 | 54 | 1015.7 |
| 20260509223505 | 57 | 51 | 3.5 | 7.0 | 0.00 | 0.00 | 0.00 | 54 | 1015.8 |
| 20260509222505 | 58 | 49 | 3.5 | 7.0 | 0.00 | 0.00 | 0.00 | 56 | 1015.6 |
| 20260509222006 | 58 | 50 | 1.7 | 7.0 | 0.00 | 0.00 | 0.00 | 57 | 1015.6 |
| 20260509221505 | 58 | 55 | 3.5 | 7.0 | 0.00 | 0.00 | 0.00 | 58 | 1015.7 |
| 20260509221005 | 58 | 49 | 3.5 | 7.0 | 0.00 | 0.00 | 0.00 | 59 | 1015.7 |
| 20260509220505 | 58 | 39 | 1.7 | 6.1 | 0.00 | 0.00 | 0.00 | 59 | 1015.6 |
| 20260509220005 | 58 | 28 | 0.9 | 4.3 | 0.00 | 0.00 | 0.00 | 59 | 1015.5 |
| 20260509215505 | 59 | 20 | 1.7 | 4.3 | 0.00 | 0.00 | 0.00 | 58 | 1015.5 |
| 20260509215005 | 59 | 32 | 1.7 | 4.3 | 0.00 | 0.00 | 0.00 | 57 | 1015.6 |
| 20260509214005 | 59 | 58 | 3.5 | 6.1 | 0.00 | 0.00 | 0.00 | 54 | 1015.5 |
| 20260509213504 | 59 | 56 | 3.5 | 8.7 | 0.00 | 0.00 | 0.00 | 54 | 1015.4 |
| 20260509213006 | 60 | 56 | 3.5 | 8.7 | 0.00 | 0.00 | 0.00 | 54 | 1015.3 |
| 20260509212505 | 60 | 63 | 3.5 | 9.6 | 0.00 | 0.00 | 0.00 | 55 | 1015.3 |
| 20260509212005 | 60 | 73 | 4.3 | 9.6 | 0.00 | 0.00 | 0.00 | 54 | 1015.3 |
| 20260509211505 | 60 | 77 | 4.3 | 9.6 | 0.00 | 0.00 | 0.00 | 54 | 1015.4 |
| 20260509211005 | 60 | 76 | 4.3 | 7.8 | 0.00 | 0.00 | 0.00 | 54 | 1015.4 |
| 20260509210505 | 60 | 72 | 3.5 | 7.8 | 0.00 | 0.00 | 0.00 | 54 | 1015.4 |
| 20260509210005 | 60 | 69 | 3.5 | 7.8 | 0.00 | 0.00 | 0.00 | 55 | 1015.3 |
| 20260509205505 | 60 | 72 | 4.3 | 8.7 | 0.00 | 0.00 | 0.00 | 54 | 1015.2 |
| 20260509205005 | 61 | 76 | 4.3 | 8.7 | 0.00 | 0.00 | 0.00 | 54 | 1015.0 |
| 20260509204005 | 61 | 72 | 3.5 | 8.7 | 0.00 | 0.00 | 0.00 | 54 | 1014.9 |
| 20260509203005 | 62 | 70 | 3.5 | 7.8 | 0.00 | 0.00 | 0.00 | 54 | 1014.8 |
| 20260509202505 | 62 | 65 | 3.5 | 7.8 | 0.00 | 0.00 | 0.00 | 54 | 1014.7 |
| 20260509202005 | 62 | 71 | 1.7 | 6.1 | 0.00 | 0.00 | 0.00 | 53 | 1014.7 |
| 20260509201505 | 62 | 72 | 1.7 | 6.1 | 0.00 | 0.00 | 0.00 | 53 | 1014.7 |
| 20260509201005 | 63 | 68 | 1.7 | 5.2 | 0.00 | 0.00 | 0.00 | 53 | 1014.7 |
| 20260509200505 | 63 | 69 | 1.7 | 5.2 | 0.00 | 0.00 | 0.00 | 52 | 1014.7 |
| 20260509200005 | 63 | 71 | 3.5 | 7.0 | 0.00 | 0.00 | 0.00 | 52 | 1014.6 |
| 20260509195505 | 64 | 70 | 1.7 | 7.0 | 0.00 | 0.00 | 0.00 | 51 | 1014.6 |
| 20260509195005 | 64 | 71 | 1.7 | 7.8 | 0.00 | 0.00 | 0.00 | 52 | 1014.5 |
| 20260509194006 | 64 | 66 | 1.7 | 5.2 | 0.00 | 0.00 | 0.00 | 52 | 1014.4 |
| 20260509193505 | 65 | 73 | 1.7 | 6.1 | 0.00 | 0.00 | 0.00 | 52 | 1014.4 |
| 20260509193005 | 65 | 80 | 3.5 | 8.7 | 0.00 | 0.00 | 0.00 | 51 | 1014.4 |
| 20260509192005 | 65 | 60 | 0.9 | 5.2 | 0.00 | 0.00 | 0.00 | 51 | 1014.3 |
| 20260509191505 | 66 | 66 | 0.9 | 2.6 | 0.00 | 0.00 | 0.00 | 51 | 1014.2 |
| 20260509191005 | 66 | 0 | 0.0 | 0.9 | 0.00 | 0.00 | 0.00 | 52 | 1014.2 |
| 20260509190006 | 67 | 0 | 0.0 | 0.9 | 0.00 | 0.00 | 0.00 | 51 | 1014.1 |
| 20260509185505 | 67 | 0 | 0.0 | 0.9 | 0.00 | 0.00 | 0.00 | 51 | 1014.1 |
| 20260509184005 | 67 | 69 | 1.7 | 5.2 | 0.00 | 0.00 | 0.00 | 48 | 1014.2 |
| 20260509183504 | 67 | 57 | 3.5 | 7.0 | 0.00 | 0.00 | 0.00 | 47 | 1014.1 |
| 20260509183005 | 67 | 56 | 3.5 | 7.8 | 0.00 | 0.00 | 0.00 | 47 | 1014.0 |
| 20260509182505 | 68 | 55 | 1.7 | 7.8 | 0.00 | 0.00 | 0.00 | 47 | 1014.0 |
| 20260509182005 | 68 | 51 | 1.7 | 5.2 | 0.00 | 0.00 | 0.00 | 48 | 1014.0 |
| 20260509180505 | 68 | 73 | 1.7 | 7.0 | 0.00 | 0.00 | 0.00 | 47 | 1014.0 |
| 20260509180005 | 68 | 68 | 1.7 | 7.0 | 0.00 | 0.00 | 0.00 | 47 | 1014.0 |
| 20260509175505 | 68 | 62 | 3.5 | 7.0 | 0.00 | 0.00 | 0.00 | 46 | 1014.0 |
| 20260509175005 | 68 | 62 | 1.7 | 5.2 | 0.00 | 0.00 | 0.00 | 46 | 1014.0 |
| 20260509174505 | 68 | 67 | 3.5 | 7.0 | 0.00 | 0.00 | 0.00 | 46 | 1013.9 |
| 20260509174005 | 69 | 72 | 3.5 | 7.8 | 0.00 | 0.00 | 0.00 | 46 | 1013.9 |
| 20260509173505 | 69 | 70 | 1.7 | 7.8 | 0.00 | 0.00 | 0.00 | 46 | 1013.9 |
| 20260509172505 | 69 | 65 | 4.3 | 7.8 | 0.00 | 0.00 | 0.00 | 47 | 1013.8 |
| 20260509172005 | 69 | 65 | 4.3 | 7.8 | 0.00 | 0.00 | 0.00 | 46 | 1013.8 |
| 20260509171505 | 70 | 58 | 4.3 | 7.8 | 0.00 | 0.00 | 0.00 | 46 | 1013.8 |
| 20260509171005 | 70 | 38 | 4.3 | 7.8 | 0.00 | 0.00 | 0.00 | 46 | 1013.8 |
| 20260509170505 | 70 | 34 | 4.3 | 9.6 | 0.00 | 0.00 | 0.00 | 44 | 1013.8 |
| 20260509170005 | 70 | 40 | 5.2 | 9.6 | 0.00 | 0.00 | 0.00 | 45 | 1013.9 |
| 20260509165505 | 71 | 43 | 4.3 | 8.7 | 0.00 | 0.00 | 0.00 | 44 | 1013.9 |
| 20260509165005 | 71 | 47 | 5.2 | 11.3 | 0.00 | 0.00 | 0.00 | 44 | 1014.0 |
| 20260509164505 | 72 | 41 | 5.2 | 11.3 | 0.00 | 0.00 | 0.00 | 42 | 1014.0 |
| 20260509164004 | 73 | 37 | 4.3 | 9.6 | 0.00 | 0.00 | 0.00 | 42 | 1014.0 |
| 20260509163504 | 73 | 49 | 5.2 | 11.3 | 0.00 | 0.00 | 0.00 | 42 | 1014.0 |
| 20260509163005 | 73 | 62 | 5.2 | 11.3 | 0.00 | 0.00 | 0.00 | 42 | 1014.0 |
| 20260509162505 | 73 | 65 | 6.1 | 11.3 | 0.00 | 0.00 | 0.00 | 41 | 1014.0 |
| 20260509162005 | 72 | 60 | 6.1 | 12.2 | 0.00 | 0.00 | 0.00 | 43 | 1014.0 |
| 20260509161505 | 72 | 51 | 5.2 | 12.2 | 0.00 | 0.00 | 0.00 | 43 | 1014.1 |
| 20260509161005 | 72 | 43 | 4.3 | 11.3 | 0.00 | 0.00 | 0.00 | 43 | 1014.1 |
| 20260509160505 | 72 | 45 | 4.3 | 8.7 | 0.00 | 0.00 | 0.00 | 45 | 1014.1 |
| 20260509160005 | 72 | 50 | 4.3 | 11.3 | 0.00 | 0.00 | 0.00 | 46 | 1014.1 |
| 20260509155505 | 71 | 48 | 4.3 | 11.3 | 0.00 | 0.00 | 0.00 | 46 | 1014.1 |
| 20260509155005 | 71 | 71 | 4.3 | 8.7 | 0.00 | 0.00 | 0.00 | 46 | 1014.1 |
| 20260509154505 | 70 | 81 | 4.3 | 7.8 | 0.00 | 0.00 | 0.00 | 48 | 1014.2 |
| 20260509154005 | 69 | 63 | 4.3 | 7.8 | 0.00 | 0.00 | 0.00 | 50 | 1014.2 |